Location: Rounton
(54.4000°N, 1.3500°W)
Time: 04:56:15
(UTC+00:00)

A-11 Canister half - Pass Details

Date: 01 December 2021
Orbit: 1516 x 1684 km, 47.2° (Epoch: 21 January)

Event Time Altitude Azimuth Distance (km) Brightness Sun altitude
Rises 10:25:16 0° 256° (WSW) 4,835 11.5 11.4°
Reaches altitude 10° 10:28:24 10° 253° (WSW) 3,870 11.1 11.5°
Maximum altitude 10:38:02 58° 178° (S) 1,892 10.3 12.0°
Drops below altitude 10° 10:47:54 10° 103° (ESE) 3,948 11.6 12.4°
Sets 10:51:08 0° 99° (E) 4,938 12.0 12.5°
